{"data":{"norad_id":55931,"epoch":"2026-09-20T18:37:50.769120Z","epoch_age_seconds":82326,"freshness":"FRESH","line1":"1 55931U 23037T   26263.77628205 -.00001743  00000+0 -13839-3 0  9997","line2":"2 55931  70.0018 172.3977 0003046 273.7031  86.3779 14.98318461192718","mean_motion":14.98318461,"eccentricity":0.0003046,"inclination_deg":70.0018,"raan_deg":172.3977,"arg_perigee_deg":273.7031,"mean_anomaly_deg":86.3779,"bstar":-0.00013839,"rev_number":19271,"period_min":96.107739274528,"perigee_km":569.97453495525,"apogee_km":574.20861420288,"semimajor_km":6950.2285745791,"source":"CELESTRAK","updated_at":"2026-09-21T09:00:33.325442Z"}}